Location: Fort Collins
(40.5850°N, 105.0840°W)
Time: 11:26:05
(UTC-07:00)

Daily predictions for brighter satellites

Satellite Brightness Start Highest point End
(mag) Time Altitude Azimuth Time Altitude Azimuth Time Altitude Azimuth
MSX 4.0 16:57:26 10° SSE 17:03:12 82° WSW 17:09:01 10° NNW
Cosmos 2297 4.5 16:59:12 10° SSE 17:04:13 33° ESE 17:09:16 10° NE
Cosmos 2278 Rocket 2.2 17:00:35 10° SSW 17:06:15 84° ESE 17:11:58 10° NNE
Cosmos 1437 3.2 17:03:55 10° SSW 17:07:01 61° W 17:10:10 10° N
SL-27 R/B 2.8 17:05:43 10° N 17:08:52 37° ENE 17:12:00 10° SE
USA 161 3.1 17:07:38 10° NNW 17:09:23 24° WNW 17:11:15 10° SW
Cosmos 540 Rocket 4.1 17:05:11 10° N 17:09:50 33° ENE 17:14:27 10° SE
Cosmos 1814 Rocket 4.2 17:04:46 10° NNW 17:10:09 86° WSW 17:15:29 10° SSE
ALOS 3.8 17:08:27 10° E 17:11:05 15° ENE 17:13:43 10° NNE
YAOGAN 1 3.4 17:09:30 10° SE 17:13:13 29° ENE 17:16:56 10° N
Meteor 1-14 Rocket 4.2 17:07:49 10° N 17:13:28 68° E 17:18:58 10° SSE
Meteor 1-28 Rocket 3.7 17:10:26 10° NNE 17:13:54 37° E 17:17:21 10° SSE
COSMO-SKYMED 1 3.9 17:11:11 10° NE 17:14:26 20° E 17:17:40 10° SE
SMAP 3.1 17:12:32 10° SSE 17:17:06 61° ENE 17:21:42 10° N
USA 234 4.4 17:14:50 10° ENE 17:20:05 25° SE 17:25:18 10° S
Cosmos 1606 3.1 17:17:24 10° SSE 17:20:56 40° E 17:24:29 10° NNE
Cosmos 1503 Rocket 4.3 17:17:45 10° S 17:22:46 47° ESE 17:27:46 10° NNE
Ariane Rocket 3.0 17:18:26 10° SSE 17:23:29 80° ENE 17:28:34 10° NNW
CZ-4C R/B 3.6 17:17:39 10° NNW 17:23:50 32° NE 17:30:39 10° ESE
Meteor 1-26 Rocket 4.4 17:18:53 10° SSW 17:24:26 74° W 17:29:57 10° N
BREEZE-M DEB (TANK) 4.2 17:24:09 10° WNW 17:26:03 22° NNW 17:28:24 11° NE
Cosmos 841 Rocket 3.5 17:21:36 10° NNW 17:26:54 90° ENE 17:32:08 10° SSE
Landsat 4 4.3 17:23:22 10° NNE 17:26:55 38° E 17:30:28 10° SSE
IRS-1A Rocket 4.3 17:27:25 10° SSE 17:33:07 62° ENE 17:38:43 10° N
Cosmos 1484 Rocket 2.9 17:29:39 10° S 17:33:30 83° WSW 17:37:27 10° NNW
Centaur D AC-29 4.0 17:28:09 10° WSW 17:33:51 17° SW 17:36:54 10° S
Cosmos 1703 Rocket 3.5 17:29:37 10° S 17:34:03 72° E 17:38:29 10° NNE
METEOR-M 4.4 17:29:23 10° SE 17:34:25 44° ENE 17:39:28 10° N
EO 1 Del DPAF 4.1 17:32:29 10° NE 17:35:52 29° E 17:39:14 10° SSE
CSL-04 Rocket 4.0 17:32:27 10° S 17:37:42 68° WSW 17:43:02 10° NNW
Cosmos 2221 Rocket 3.8 17:34:09 10° SSE 17:38:22 48° E 17:42:37 10° NNE
ERS-2 2.5 17:38:43 10° SE 17:42:11 42° ENE 17:45:40 10° N
CZ-4 R/B 1.3 17:41:48 10° SSE 17:45:39 86° WSW 17:49:30 10° NNW
BREEZE-M DEB (TANK) 3.5 17:43:43 10° NNW 17:45:40 20° NNE 17:46:38 18° NE
Cosmos 2082 Rocket 2.1 17:41:04 10° NNW 17:46:45 69° ENE 17:52:21 10° SSE
Cosmos 2034 Rocket 4.3 17:41:54 10° SSE 17:47:52 45° E 17:53:49 10° NNE
Cosmos 1602 4.1 17:48:06 10° N 17:51:43 38° ENE 17:55:20 10° SSE
MOS 1 4.3 17:46:46 10° SSE 17:52:20 58° ENE 17:57:55 10° N
Cosmos 1633 2.6 17:50:27 10° N 17:54:07 80° W 17:57:46 10° S
Okean 2 Rocket 3.2 17:50:13 10° N 17:54:40 53° E 17:59:04 10° SSE
CENTAUR R/B 4.3 17:50:08 10° W 17:55:11 24° NW 18:00:46 10° NNE
Meteor 2-6 Rocket 4.1 17:49:59 10° S 17:55:23 71° E 18:00:57 10° NNE
Cosmos 405 Rocket 2.7 17:54:04 10° S 17:57:46 55° E 18:00:28 17° NNE
CZ-4 R/B 4.3 17:54:31 10° SSE 17:58:40 84° ENE 18:02:50 10° N
Centaur D AC-28 4.2 17:55:01 10° SW 17:59:33 33° SSE 18:11:43 14° ESE
Cosmos 1354 Rocket 4.2 17:57:24 10° SSW 18:02:40 76° WNW 18:07:56 10° NNE
SKYMED 2 3.5 17:58:21 10° NNE 18:02:41 70° E 18:07:00 10° S
Cosmos 1782 3.4 17:59:58 10° SSW 18:03:55 57° W 18:07:53 10° N
CZ-2C R/B 4.3 18:02:51 10° N 18:07:15 57° WNW 18:11:43 10° SSW
USA 229 DEB 4.3 18:01:45 10° S 18:07:42 35° ESE 18:10:13 27° ENE
USA 229 4.3 18:01:53 10° S 18:07:48 34° ESE 18:10:16 27° ENE
SPOT 3 Rocket 3.4 18:08:06 10° SSE 18:13:17 71° ENE 18:18:29 10° N
GPS 2-05 Rocket1 3.9 18:10:52 10° SW 18:13:40 29° S 18:14:06 28° SSE
Cosmos 1464 Rocket 4.0 18:08:24 10° S 18:14:31 83° W 18:20:42 10° N
Cosmos 44 Rocket 3.2 18:10:18 10° NNW 18:15:13 83° ENE 18:20:12 10° SSE
ISS -1.2 18:15:12 10° SSE 18:15:23 11° SSE 18:15:23 11° SSE
Okean 1-7 3.8 18:13:41 10° SSW 18:17:57 52° W 18:22:16 10° N
Cosmos 292 Rocket 3.6 18:14:14 10° NNW 18:19:01 89° E 18:23:45 10° SSE
FENGYUN 3A 3.5 18:14:09 10° SSE 18:19:30 69° ENE 18:24:53 10° N
Meteor 1-5 Rocket 4.2 18:21:05 10° N 18:26:12 47° ENE 18:31:17 10° SSE
Meteor 2-20 Rocket 4.3 18:21:53 10° N 18:27:57 65° E 18:33:57 10° SSE
Meteor 1-27 Rocket 3.8 18:25:13 10° S 18:31:06 90° SSE 18:37:06 10° N
Cosmos 44 3.8 18:29:41 10° NW 18:34:20 59° WSW 18:39:14 10° SSE
Lacrosse 5 4.0 18:33:22 10° NNW 18:35:29 12° N 18:35:34 12° N
Cosmos 1833 Rocket 3.8 18:32:38 10° NW 18:37:55 43° WSW 18:43:12 10° S
Cosmos 2369 Rocket 3.1 18:35:59 10° S 18:39:26 30° SE 18:39:26 30° SE
Cosmos 405 4.1 18:38:55 10° NNW 18:42:20 44° W 18:45:45 10° SSW
Thor Agena Rocket 3.7 18:45:30 50° SE 18:45:30 50° SE 18:49:44 10° S
NOAA 12 4.4 18:40:08 10° S 18:45:25 68° WSW 18:50:43 10° NNW
ALOS 2.8 18:43:26 10° S 18:48:01 58° W 18:52:38 10° NNW
Tiangong 1 3.9 18:45:49 10° WSW 18:46:16 14° SW 18:46:16 14° SW
COSMO-SKYMED 1 4.1 18:46:44 10° N 18:50:39 34° WNW 18:54:33 10° SW
Cosmos 968 Rocket 4.0 18:53:38 10° SSW 18:58:43 57° WNW 19:00:45 34° N
USA 234 3.2 19:01:47 53° NE 19:03:31 84° NW 19:10:03 10° SW
Cosmos 1943 Rocket 4.3 19:00:13 10° S 19:00:40 12° SSE 19:00:40 12° SSE
CZ-4C R/B 3.1 19:05:43 10° NW 19:12:59 71° WSW 19:18:12 24° SSE
Cosmos 1634 Rocket 4.2 19:21:38 10° SSW 19:26:52 64° SW 19:26:52 64° SW
USA 229 DEB 4.4 19:51:54 10° WSW 19:57:42 47° WNW 19:57:42 47° WNW
USA 229 4.4 19:52:00 10° WSW 19:57:46 47° WNW 19:57:46 47° WNW
